Location: Peebles
(55.6412°N, 3.1714°W)
Time: 06:34:42
(UTC+01:00)

Altair 2 - Pass Details

Date: 05 July 2022
Orbit: 702 x 2529 km, 96.4° (Epoch: 10 August)

Event Time Altitude Azimuth Distance (km) Brightness Sun altitude
Rises 03:13:58 0° 120° (ESE) 5,797 12.0 -7.7°
Reaches altitude 10° 03:18:07 10° 113° (ESE) 4,572 11.5 -7.5°
Maximum altitude 03:27:24 33° 56° (ENE) 2,557 10.9 -6.8°
Drops below altitude 10° 03:34:24 10° 357° (N) 3,395 11.8 -6.3°
Sets 03:37:01 0° 348° (NNW) 4,149 12.1 -6.1°
